Location: Bobolice
(50.6120°N, 19.4934°E)
Time: 14:41:59
(UTC+00:00)

Daily predictions for brighter satellites

Satellite Brightness Start Highest point End
(mag) Time Altitude Azimuth Time Altitude Azimuth Time Altitude Azimuth
Cosmos 1459 Rocket 4.4 18:42:07 10° SSE 18:48:01 46° E 18:53:51 10° NNE
ATLAS 2AS CENTAUR R/B 2.7 18:44:04 10° SW 18:51:01 82° SE 18:57:53 10° NE
Cosmos 2100 Rocket 4.2 18:45:20 10° SSE 18:51:19 53° E 18:57:25 10° NNE
SL-24 R/B 4.1 18:47:05 10° NNE 18:51:19 73° ESE 18:55:43 10° S
Cosmos 44 Rocket 4.4 18:47:54 10° SSE 18:51:58 25° ESE 18:56:09 10° ENE
Cosmos 1743 3.6 18:51:21 10° NNE 18:53:45 21° ENE 18:56:09 10° SE
BREEZE-M DEB (TANK) 3.3 18:50:18 10° SW 18:54:19 24° SSE 18:56:28 10° ESE
Ariane Rocket 4.4 18:53:03 10° ESE 18:57:05 25° ENE 19:01:09 10° N
ISS -1.9 18:56:33 10° SSE 18:58:11 13° SE 18:59:49 10° ESE
ADEOS 3.6 18:53:46 10° SSE 18:58:59 84° ENE 19:04:14 10° NNW
Cosmos 2322 Rocket 4.4 18:57:20 10° N 19:00:31 15° NNE 19:03:44 10° ENE
Spot 2 Rocket 3.6 18:57:50 10° SSE 19:02:45 60° ENE 19:07:43 10° N
Cosmos 2082 Rocket 3.5 19:00:38 10° SE 19:04:37 20° E 19:08:38 10° NE
Cosmos 2151 Rocket 3.6 19:02:43 10° S 19:07:05 89° E 19:11:29 10° N
SL-4 R/B 2.8 19:04:16 10° W 19:07:48 36° SSW 19:11:18 11° SE
Okean 2 Rocket 3.1 19:05:03 10° S 19:09:30 73° E 19:14:00 10° NNE
BREEZE-M DEB (TANK) 4.4 19:07:57 10° WSW 19:12:53 83° SSE 19:35:11 10° ENE
Cosmos 1371 Rocket 4.4 19:09:15 10° SSW 19:14:32 72° WNW 19:19:54 10° NNE
Cosmos 1536 Rocket 4.0 19:10:17 10° NNW 19:14:35 62° W 19:18:53 10° S
IRS-1A Rocket 4.5 19:09:37 10° SSE 19:15:25 86° WSW 19:21:21 10° NNW
Timation 1 Rocket 4.5 19:11:24 10° S 19:17:14 55° ESE 19:23:05 10° NE
Cosmos 292 Rocket 4.0 19:13:25 10° NNW 19:18:11 71° WSW 19:22:54 10° SSE
Tsikada Rocket 4.5 19:12:37 10° N 19:18:33 45° ENE 19:24:01 12° SE
CZ-4C R/B 2.0 19:18:33 10° SSW 19:22:30 43° ESE 19:27:26 10° NE
Cosmos 2228 3.9 19:19:24 12° SSE 19:22:40 29° E 19:26:15 10° NNE
Cosmos 1725 Rocket 4.1 19:17:51 10° S 19:23:58 58° E 19:30:06 10° NNE
Cosmos 1697 Rocket 3.2 19:18:36 10° NW 19:24:06 56° WSW 19:29:33 10° S
Okean O Rocket 1.5 19:20:28 10° SSE 19:24:46 85° ENE 19:29:05 10° NNW
USA 305 3.0 19:21:22 10° WNW 19:25:26 60° NNE 19:29:06 10° E
ATLAS 3B R/B 3.2 19:18:52 10° NW 19:26:37 69° SW 19:33:32 12° SSE
ERS-1 Rocket 4.0 19:22:06 10° S 19:26:54 45° W 19:31:44 10° NNW
Cosmos 1741 Rocket 4.1 19:22:28 10° NNW 19:27:49 90° WSW 19:32:45 12° SSE
SL-16 R/B 3.7 19:23:12 10° NNW 19:27:59 27° NE 19:32:45 10° E
Cosmos 1452 Rocket 3.7 19:23:37 10° S 19:28:38 50° ESE 19:33:41 10° NNE
Helios 1A Rocket 3.6 19:26:02 10° N 19:29:03 41° WNW 19:32:02 10° SW
USA 186 1.2 19:28:18 14° SSE 19:30:27 89° WSW 19:33:11 10° NNW
Cosmos 1867 4.1 19:25:43 10° SW 19:31:08 66° NW 19:36:36 10° NE
Okean-O 2.7 19:33:13 10° S 19:37:35 75° WSW 19:41:59 10° NNW
Cosmos 1331 Rocket 3.9 19:32:43 10° SSW 19:37:57 81° ESE 19:43:12 10° NNE
Cosmos 968 Rocket 4.3 19:33:35 10° NNW 19:38:37 48° WSW 19:43:37 10° S
Cosmos 2333 Rocket 3.6 19:35:50 10° NNW 19:40:46 29° NE 19:45:39 10° ESE
Cosmos 1892 Rocket 3.5 19:38:16 10° N 19:42:38 88° W 19:46:26 13° S
CZ-4B R/B 3.6 19:39:17 16° SE 19:42:56 56° ENE 19:47:38 10° N
Cosmos 2016 Rocket 4.0 19:36:50 10° S 19:43:04 72° E 19:49:17 10° NNE
Cosmos 2173 Rocket 4.3 19:39:23 10° SSW 19:45:30 70° WNW 19:51:43 10° N
Cosmos 1302 Rocket 4.3 19:41:36 10° S 19:46:28 44° ESE 19:51:22 10° NE
USA 245 4.4 19:42:23 14° SSE 19:47:34 80° ENE 19:53:25 10° NNW
Cosmos 1455 Rocket 3.0 19:43:44 10° S 19:48:09 82° E 19:52:34 10° NNE
Cosmos 2061 Rocket 4.2 19:44:57 12° SSE 19:50:35 54° E 19:56:40 10° NNE
SL-08 R/B 3.8 19:46:01 10° N 19:50:51 63° WNW 19:55:35 10° SSW
NOSS 3-3 (A) 4.5 19:47:13 13° SSE 19:50:57 29° ESE 19:55:58 10° ENE
Cosmos 1980 Rocket 2.4 19:46:35 10° NNW 19:52:17 72° WSW 19:56:48 16° SSE
Okean 1 Rocket 4.1 19:50:05 10° SSW 19:54:18 47° WNW 19:58:36 10° N
Cosmos 724 4.4 19:48:28 10° SSW 19:54:21 56° ESE 20:00:08 10° NE
SPOT 3 Rocket 3.5 19:53:56 16° SSE 19:58:03 88° ENE 20:03:13 10° NNW
CZ-4 R/B 4.2 19:59:07 10° W 19:59:48 10° W 20:00:29 10° WNW
CZ-4B R/B 2.3 19:58:30 23° SSE 20:00:29 87° WSW 20:03:54 10° NNW
Cosmos 1544 Rocket 4.4 19:58:37 22° SE 20:00:37 33° E 20:04:30 10° NNE
Cosmos 1782 2.4 19:59:06 14° S 20:02:01 90° E 20:05:34 10° N
Cosmos 1933 4.3 20:09:27 24° ESE 20:10:23 27° E 20:13:39 10° NNE
Cosmos 1802 Rocket 4.4 20:05:52 10° SSW 20:12:00 64° WNW 20:18:09 10° N
Cosmos 2084 Rocket 3.4 20:08:03 10° NW 20:12:16 82° NE 20:14:32 27° SE
Cosmos 1833 Rocket 4.2 20:07:03 10° WSW 20:12:18 39° NW 20:17:35 10° NNE
Terra 4.1 20:10:27 10° SW 20:13:50 20° W 20:17:15 10° NW
Cosmos 1758 Rocket 3.7 20:10:05 10° N 20:14:26 62° ENE 20:16:41 27° SSE
IRS-1C Rocket 4.1 20:10:56 20° SSE 20:14:41 85° WSW 20:20:00 10° NNW
Gbstr 26 Del rocket 3.6 20:12:24 10° WNW 20:17:04 43° SSW 20:18:53 27° SSE
Cosmos 2360 Rocket 3.5 20:13:17 10° NNW 20:18:20 31° NE 20:22:30 14° ESE
NOSS 3-3 (C) 4.2 20:15:34 20° S 20:18:39 37° ESE 20:24:12 10° NE
Helios 1B rocket 4.0 20:17:54 15° E 20:19:07 18° ENE 20:21:35 10° NNE
CZ-2C R/B 1.9 20:23:39 45° S 20:24:21 72° WSW 20:27:09 10° NNW
Cosmos 1743 4.3 20:24:11 10° NW 20:26:32 21° W 20:28:34 12° SW
Cosmos 2237 4.2 20:22:06 10° NNW 20:27:52 81° WSW 20:31:12 26° SSE
Geosat 4.2 20:24:48 10° NE 20:29:40 48° ESE 20:32:22 24° S
NOSS 3-4 (A) 4.3 20:26:04 10° NW 20:32:20 53° NE 20:38:36 15° ESE
NOSS 3-4 (C) 4.3 20:26:39 10° NW 20:32:57 53° NE 20:39:16 14° ESE
Cosmos 44 Rocket 3.8 20:27:55 10° SW 20:32:59 68° NW 20:38:11 10° NE
ISS -3.7 20:31:09 10° SW 20:34:25 53° SSE 20:35:05 43° ESE
Ariane Rocket 3.4 20:32:21 21° S 20:35:37 58° WSW 20:40:38 10° NNW
Cosmos 2219 Rocket 3.7 20:31:00 10° NNW 20:35:52 28° NE 20:40:07 13° E
Cosmos 1602 Rocket 3.6 20:35:50 10° N 20:40:08 65° ENE 20:41:43 36° SSE
ATLAS 2AS CENTAUR R/B 4.2 20:36:10 10° W 20:42:34 39° NNW 20:48:53 10° NE
Cosmos 2369 4.1 20:37:41 10° NW 20:43:17 57° WSW 20:46:24 26° S
Cosmos 2322 Rocket 2.9 20:40:34 10° NNW 20:46:02 47° NE 20:49:17 23° ESE
Cosmos 2082 Rocket 2.3 20:42:17 10° SSW 20:48:00 81° WNW 20:53:46 10° NNE
Cosmos 1437 Rocket 2.4 20:47:59 52° SSE 20:48:39 68° E 20:52:13 10° NNE
USA 305 2.6 20:46:55 10° WNW 20:50:50 50° SW 20:51:08 48° SSW
Cosmos 1891 Rocket 4.4 20:46:58 23° S 20:50:57 83° E 20:57:03 10° N
Cosmos 909 Rocket 3.9 20:44:39 10° SSW 20:50:57 79° SE 20:57:29 10° NE
Cosmos 2151 3.0 20:47:14 10° NNW 20:51:22 71° W 20:52:53 37° S
USA 234 3.8 20:47:26 10° ENE 20:53:19 35° SE 20:55:31 28° SSE
Meteor 1-5 Rocket 4.3 20:49:44 10° N 20:55:22 68° ENE 20:58:02 33° SSE
Cosmos 1626 Rocket 4.3 20:53:52 10° NNW 20:58:01 46° W 21:00:05 26° SSW
Cosmos 1607 4.1 20:53:18 10° SW 20:59:28 77° NW 21:05:47 10° NE
Okean O Rocket 4.2 20:59:49 10° WSW 21:01:34 12° W 21:03:18 10° WNW
Cosmos 2278 3.7 20:59:27 10° NNW 21:05:13 81° ENE 21:07:47 35° SE
Cosmos 1503 Rocket 4.5 21:01:29 10° NNW 21:06:34 50° ENE 21:08:48 30° ESE
Cosmos 1777 Rocket 4.2 21:01:47 10° NNW 21:07:01 64° ENE 21:09:08 35° SE
Okean 1-7 Rocket 3.5 21:04:05 10° N 21:08:33 78° E 21:09:50 46° SSE
Cosmos 1992 Rocket 4.2 21:05:58 17° SSW 21:10:01 71° WNW 21:15:15 10° NNE
CZ-4C R/B 3.2 21:06:21 10° WSW 21:10:41 42° NNW 21:16:15 10° NE
IKONOS-2 4.3 21:06:42 10° NNE 21:10:50 74° ESE 21:11:49 50° S
COSMOS 2406 3.1 21:07:29 24° SSW 21:11:04 79° ESE 21:16:50 10° NNE
Cosmos-2242 4.3 21:11:13 24° E 21:11:25 24° E 21:14:47 10° NE
Helios 1A 2.7 21:08:24 10° NNE 21:12:21 71° ESE 21:13:02 56° SSE
SL-16 R/B 2.2 21:06:58 10° NNW 21:12:39 75° WSW 21:14:58 37° SSE
Nadezhda 4 Rocket 3.9 21:09:20 10° N 21:15:30 89° E 21:18:18 35° S
Cosmos 1606 Rocket 3.5 21:15:48 50° SSE 21:16:45 66° E 21:21:04 10° NNE
Cosmos 1805 2.8 21:14:41 10° NNW 21:17:56 66° W 21:18:02 66° WSW
Cosmos 1486 Rocket 3.9 21:13:26 10° NNW 21:18:43 86° ENE 21:20:37 41° SSE
USA 290 4.4 21:24:21 17° ENE 21:24:21 17° ENE 21:25:31 10° NE
Cosmos 2333 Rocket 2.3 21:19:53 10° NW 21:25:33 68° WSW 21:27:39 39° S
CSL-04 DEB 3.8 21:26:07 76° SE 21:26:22 85° E 21:29:59 10° NNW
Cosmos 2098 Rocket 3.4 21:25:32 35° SSW 21:27:40 76° W 21:32:16 10° N
SeaSat 1 4.2 21:24:17 12° E 21:27:53 26° NE 21:31:56 10° NNW
Cosmos 1766 3.9 21:25:46 10° N 21:28:33 33° ENE 21:28:33 33° ENE
Cosmos 1726 Rocket 3.3 21:29:27 59° SE 21:29:55 64° E 21:33:56 10° NNE
Cosmos 2195 Rocket 4.4 21:27:18 10° N 21:33:37 84° E 21:36:10 38° SSE
Cosmos 1076 Rocket 3.4 21:29:59 10° N 21:34:17 86° E 21:35:03 60° SSE
Cosmos 1980 Rocket 4.5 21:32:46 10° WNW 21:35:14 13° W 21:37:41 10° WSW
CZ-2C R/B 4.1 21:34:56 18° ESE 21:37:42 27° ENE 21:42:02 10° N
Cosmos 2026 Rocket 4.0 21:33:44 10° N 21:40:09 81° E 21:42:46 39° SSE
NOSS 3-3 (A) 4.1 21:35:54 10° WSW 21:41:11 65° NW 21:47:39 10° NE
Spot 4 3.8 21:44:25 49° SE 21:45:38 76° ENE 21:50:26 10° NNW
DNEPR-1 R/B 4.3 21:41:43 10° NW 21:47:06 70° SW 21:49:20 41° SSE
Aureole 1 Rocket 4.2 21:43:59 10° NNW 21:49:04 53° ENE 21:51:56 30° ESE
Okean 1 3.1 21:49:59 65° W 21:50:07 66° WNW 21:53:42 10° N
Helios 1B rocket 2.8 21:51:51 41° W 21:51:51 41° W 21:55:11 10° NNW
SAR-Lupe-2 3.8 21:53:25 54° NE 21:53:25 54° NE 21:56:30 10° N
Cosmos 1975 4.2 21:50:35 10° NNE 21:53:37 24° ENE 21:54:01 23° E
Cosmos 2333 4.2 21:50:01 10° NNW 21:55:45 79° WSW 21:57:35 45° SSE
Cosmos 44 4.3 21:51:21 10° NW 21:56:38 49° NE 21:59:53 22° ESE
Cosmos 1464 Rocket 4.4 21:53:23 26° SW 21:56:47 56° WNW 22:02:51 10° N
Cosmos 2360 Rocket 2.3 21:57:06 10° NW 22:02:41 61° WSW 22:04:14 44° SSW
Cosmos 1271 Rocket 4.1 22:04:45 25° ENE 22:04:45 25° ENE 22:07:01 10° NE
Meteor 1-26 Rocket 4.1 22:03:06 47° S 22:04:46 83° E 22:10:24 10° NNE
RESURS DK-1 4.2 22:03:42 10° NNW 22:07:02 25° NE 22:09:02 17° E
ALOS 2 2.5 22:06:32 64° S 22:07:11 83° WSW 22:11:37 10° NNW
ARIANE 5 R/B 2.6 22:07:11 58° SSW 22:07:51 68° W 22:12:17 10° NNW
NOSS 3-3 (C) 4.5 22:03:54 10° WSW 22:09:15 55° NW 22:15:45 10° NE
Cosmos 1953 Rocket 3.9 22:05:55 10° NNW 22:10:11 52° W 22:10:47 48° SW
ISS -1.1 22:07:51 10° W 22:08:15 13° W 22:08:15 13° W
GP-B 4.1 22:07:29 10° NNE 22:11:26 32° E 22:12:04 31° E
Cosmos 468 Rocket 4.5 22:11:08 41° SE 22:11:54 43° ESE 22:16:53 10° NE
Cosmos 2058 Rocket 2.9 22:11:46 68° S 22:12:17 85° E 22:16:40 10° N
BREEZE-M R/B 4.0 22:11:08 10° WNW 22:18:20 79° SSW 22:24:17 10° ESE
Cosmos 1092 Rocket 4.1 22:12:34 10° NNW 22:18:40 66° W 22:20:51 40° SSW
CZ-2C R/B 3.9 22:14:40 10° N 22:19:03 64° WNW 22:20:05 48° SW
Helios 1B 4.4 22:15:09 10° NNE 22:19:25 77° ESE 22:19:50 69° SSE
Cosmos 2219 Rocket 2.2 22:14:40 10° NNW 22:20:18 69° WSW 22:21:47 48° S
NOSS 3-4 (A) 4.1 22:16:52 10° NW 22:23:24 53° SW 22:26:00 38° S
NOSS 3-4 (C) 4.0 22:17:27 10° NW 22:24:02 54° SW 22:26:40 38° S
Cosmos 540 Rocket 3.4 22:23:21 51° SSW 22:24:42 90° ENE 22:29:53 10° NNE
PSLV R/B 3.4 22:21:01 10° NNE 22:25:16 88° ESE 22:25:44 70° S
Meteor 1-14 Rocket 4.2 22:20:06 10° N 22:25:42 72° ENE 22:27:27 44° SSE
Cosmos 1898 Rocket 3.9 22:21:10 10° NNW 22:26:17 56° ENE 22:28:15 35° ESE
Cosmos 1461 3.3 22:26:32 41° W 22:27:17 49° NW 22:30:54 10° NNE
Cosmos 2322 Rocket 3.0 22:24:50 10° NW 22:29:58 36° WSW 22:31:03 33° SW
MetOp-A 3.8 22:29:01 54° SSE 22:30:13 88° ENE 22:35:07 10° NNW
Cosmos 2082 Rocket 4.5 22:28:38 10° W 22:33:00 22° NW 22:37:22 10° NNE
SL-08 ROCKET BODY 4.4 22:30:11 10° NNW 22:36:20 79° W 22:38:25 44° S
USA 234 3.2 22:30:16 10° ENE 22:36:51 89° SE 22:42:49 13° WSW
Cosmos 1707 3.8 22:38:21 27° NW 22:38:21 27° NW 22:40:15 10° N
Cosmos 1536 3.4 22:34:51 10° NNW 22:38:06 41° W 22:38:06 41° W
Meteor 2-9 Rocket 4.0 22:34:36 10° NNW 22:39:58 85° ENE 22:41:29 49° SSE
ACS3 Solar Sail 3.0 22:36:41 10° NNE 22:41:48 28° E 22:44:07 22° SE
COSMOS 2428 2.9 22:38:16 10° NNW 22:43:58 69° ENE 22:46:33 33° SE
Cosmos 2237 Rocket 3.4 22:42:05 10° NNW 22:47:24 38° NE 22:52:25 11° ESE
Cosmos 1763 Rocket 3.9 22:45:39 34° WSW 22:47:45 57° WNW 22:52:58 10° NNE
TSX-5 4.0 22:44:58 10° NNW 22:47:24 51° NNW 22:47:24 51° NNW
Cosmos-2242 3.9 22:47:28 33° W 22:48:15 36° WNW 22:52:05 10° N
CZ-2C R/B 3.2 22:44:25 10° NNE 22:50:07 83° ESE 22:51:56 46° S
ARGOS Delta rocket 4.5 22:49:37 10° N 22:54:26 51° WNW 22:56:07 36° WSW
SL-16 R/B 4.2 22:53:05 10° WNW 22:55:46 14° W 22:56:47 13° WSW
USA 290 4.0 22:56:48 25° WNW 22:56:59 25° NW 22:59:40 10° N
CZ-4C R/B 4.1 22:55:10 10° NNE 22:57:47 33° E 22:57:47 33° E
Cosmos 1238 Rocket 4.0 23:01:17 28° E 23:01:30 28° E 23:04:55 10° NNE
Cosmos 2227 Rocket 4.4 23:00:04 10° ESE 23:02:10 12° E 23:04:18 10° ENE
Cosmos 1766 Rocket 4.4 22:58:26 10° N 23:02:32 41° ENE 23:03:43 33° ESE
Cosmos 2279 Rocket 4.2 23:01:48 38° SW 23:04:14 64° WNW 23:10:29 10° N
Cosmos 1470 3.6 23:01:47 10° NNW 23:04:12 33° WNW 23:04:12 33° WNW
SeaSat 1 2.4 23:03:53 54° S 23:04:53 71° WSW 23:09:49 10° NW
Intercosmos 24 3.9 23:04:14 10° N 23:08:44 71° ENE 23:09:11 63° SE
Cosmos 2333 Rocket 4.3 23:06:38 10° WNW 23:08:46 12° W 23:09:39 12° WSW
Cosmos 2221 2.4 23:09:57 61° WSW 23:10:22 66° WNW 23:14:33 10° N
Cosmos 1842 4.3 23:13:51 28° WNW 23:13:51 28° WNW 23:16:20 10° N
Cosmos 841 Rocket 3.5 23:12:28 50° S 23:13:42 70° ESE 23:18:55 10° NNE
CZ-2C R/B 2.8 23:16:22 45° SSW 23:17:37 56° W 23:22:48 10° NNW
Alouette 2 Rocket 3.9 23:15:22 10° N 23:18:51 50° ENE 23:19:47 40° ESE
Meteor 1-19 Rocket 4.3 23:17:12 43° SSW 23:19:08 76° WNW 23:25:02 10° N
BREEZE-M DEB (TANK) 3.4 23:13:46 10° W 23:19:43 57° SSW 23:25:08 10° ESE
NOSS 0 Rocket 3.8 23:19:01 10° NNW 23:25:13 82° WSW 23:28:04 34° SSE
Cosmos 1975 3.9 23:25:22 10° NNW 23:28:17 29° W 23:28:17 29° W
DELTA 2 DEB (DPAF) 3.5 23:25:15 10° NNE 23:28:49 69° ESE 23:28:50 69° ESE
Cosmos 1655 Rocket 4.1 23:23:34 10° N 23:29:49 75° ENE 23:32:53 32° SSE
Cosmos 2266 Rocket 4.1 23:26:31 10° NNW 23:32:26 57° W 23:34:28 39° SSW
Cosmos 2322 3.9 23:28:26 10° NW 23:33:56 51° WSW 23:35:16 42° SSW
Cosmos 1812 Rocket 3.9 23:34:01 44° WSW 23:34:50 51° WNW 23:39:10 10° N
Cosmos 2297 Rocket 2.7 23:33:58 36° SSE 23:35:45 48° ESE 23:41:10 10° NE
Cosmos 44 4.0 23:32:42 10° NW 23:37:43 40° WSW 23:38:08 39° SW
Cosmos 858 Rocket 4.4 23:32:40 10° NNW 23:37:52 78° WSW 23:39:32 43° S
Cosmos 1271 Rocket 4.1 23:38:07 23° WNW 23:38:18 23° WNW 23:41:05 10° NNW
Meteor 2-20 Rocket 4.2 23:40:52 40° S 23:43:08 86° E 23:48:53 10° N
RESURS DK-1 2.7 23:40:46 10° NW 23:44:13 44° W 23:44:13 44° W
Cosmos 1937 Rocket 3.7 23:39:43 10° NNW 23:44:41 49° WSW 23:45:41 43° SW
Cosmos 2360 Rocket 4.4 23:44:42 10° W 23:45:28 10° W 23:45:57 10° W
Lacrosse 4 Rocket 3.0 23:46:25 21° ESE 23:46:53 21° ESE 23:49:59 10° ENE
Meteor 1-11 Rocket 4.2 23:42:30 10° NNW 23:47:55 44° W 23:49:32 35° SW
ISS -1.3 23:50:54 14° ESE 23:50:54 14° ESE 23:51:27 10° ESE
GP-B 4.2 23:44:35 10° NNW 23:48:24 30° WNW 23:49:14 28° W
NOSS 8 (H) 4.4 23:47:23 10° NW 23:49:51 61° NNW 23:49:51 61° NNW
Cosmos 1066 Rocket 4.4 23:49:22 34° SSE 23:51:34 61° E 23:56:56 10° NNE
